Regional Weather Roundup
Issued by NWS Newport/Morehead, NC

Current Version | Previous Version | Graphics & Text | Print | Product List | Glossary Off
Versions: 1 2 3 4 5 6 7 8 9 10 11 12 13 14 15 16 17 18 19 20 21 22 23 24 25 26 27 28 29 30 31 32 33 34 35 36 37 38 39 40 41 42 43 44 45 46 47 48 49 50

000
ASUS42 KMHX 281013
RWRMHX
WEATHER ROUNDUP FOR EASTERN NORTH CAROLINA
NATIONAL WEATHER SERVICE NEWPORT/MOREHEAD CITY NC
600 AM EDT THU JUL 28 2016

NOTE: "FAIR" INDICATES FEW OR NO CLOUDS BELOW 12,000 FEET
WITH NO SIGNIFICANT WEATHER AND/OR OBSTRUCTIONS TO VISIBILITY

NCZ015>017-031-032-045>047-102-103-281100-
NORTH COAST

CITY           SKY/WX    TMP DP  RH WIND       PRES   REMARKS
EDENTON        PTCLDY    81  74  78 W3        29.93R
ELIZABETH CITY CLEAR     79  74  84 W7        29.92R
KITTY HAWK     MOSUNNY   82  76  83 SW5       29.91R
MANTEO           N/A     80  76  89 W8        29.93R

$$

NCZ045>047-081-094-103-104-281100-
CENTRAL COAST

CITY           SKY/WX    TMP DP  RH WIND       PRES   REMARKS
FRISCO         PTCLDY    81  76  84 W5        29.94R

$$

NCZ095-097-098-100-101-281100-
SOUTHERN COAST

CITY           SKY/WX    TMP DP  RH WIND       PRES   REMARKS
BEAUFORT       CLEAR     81  80  97 SW8         N/A
CEDAR ISLAND   NOT AVBL
JACKSONVILLE   CLEAR     79  76  90 SW7       29.92S
PINEY ISLAND   NOT AVBL
WILMINGTON     CLEAR     81  77  88 SW6       29.95R


$$

NCZ011>013-027>030-043-044-078>080-089-090>093-098-281100-
COASTAL PLAIN

CITY           SKY/WX    TMP DP  RH WIND       PRES   REMARKS
AHOSKIE        CLEAR     74  74  98 CALM      29.93R
CLINTON        CLEAR     78  76  95 CALM      29.93S
ELIZABETHTOWN  CLEAR     80  76  87 CALM      29.94R
GOLDSBORO      CLEAR     79  79 100 SW5       29.90S
GREENVILLE     CLEAR     77  77 100 CALM      29.93S
HAVELOCK       PTCLDY    78  75  90 SW3       29.94R
KENANSVILLE    NOT AVBL
KINSTON        CLEAR     78  76  93 SW3       29.93R
NEW BERN       CLEAR     78  75  90 SW6       29.93S
RICHLANDS      CLEAR     77  77 100 SW5       29.94R
ROCKY MOUNT    CLEAR     75  75 100 CALM      29.92R FOG
WASHINGTON     CLEAR     77  75  92 SW3       29.92R
WHITEVILLE     PTCLDY    80  75  85 SW3       29.95R

$$

AMZ130-135-150-152-154-156-158-170-250-252-270-ANZ085-086-088-633-658-670-281100-
MARINE OBSERVATIONS

STATION/POSITION TIME  TEMP    WIND        PRES    WAVE   SWELL
                       AIR SEA DIR/SP/G            HT/PER HT/PER
                 (UTC) (F)     (DEG/KT/KT) (MB)    (FT/S) (FT/S)
CHESAPEAKE LIGHT NOT AVBL
64 E VA BEACH    0950   81 81  240/  4/  6 1012.7    2/ 6   2/ 6
DUCK             0900   83 71  270/ 10/ 15 1011.8
2 E DUCK         0911      76                N/A     1/ 8
OREGON INLET     0900   82 84  280/  7/ 10 1012.7
13E OREGON INLT  1000      79                N/A     2/ 5   2/ 5
HATTERAS CG      0900   82 83  210/  5/  6 1013.2
DIAMOND BUOY     0950   84 84  220/  4/  6 1013.9    3/ 6   3/ 6
CAPE LOOKOUT     1000   82     230/  6/  8 1013.5
BEAUFORT LAB     0900   82 83  240/  3/  6 1012.7
30 SE NEW RVR IN 0908   84 85  260/ 14/ 19 1013.5
30 SE NEW RVR IN 0925      85                N/A     4/ 5
27 SE WRIGHTSVLE 0908   84 84  240/ 16/ 21 1013.9
5 SE WRIGHTSVLE  0908   81 80  230/  6/ 10 1014.7
225 S CAPE HAT   0950   84 84  260/ 14/ 16 1015.7    3/ 6   2/ 7
41 SE CHARLESTON 0950   85 86  250/ 19/ 21 1014.7    5/ 5

$$




USA.gov is the U.S. government's official web portal to all federal, state and local government web resources and services.